EW8716 Weather Reports


Display with metric or nautical units.
time (UTC)temp
F
wind
direction
speed
MPH
gust
MPH
rain 1hr
in
rain 24hr
in
rain mn
in
humidity
%
barometer
mb
20260503005647 49 18 0.0 0.0 0.02 0.09 0.03 62 1011.9
20260503005432 49 88 0.0 0.0 0.03 0.09 0.03 62 1011.9
20260503004644 49 10 0.0 0.0 0.02 0.08 0.02 62 1012.0
20260503004141 49 17 0.0 0.0 0.02 0.08 0.02 62 1012.0
20260503003707 49 112 0.0 0.0 0.02 0.07 0.02 62 1012.1
20260503003657 49 112 0.0 0.0 0.02 0.07 0.02 62 1012.0
20260503002639 49 111 0.0 0.0 0.02 0.07 0.02 62 1012.1
20260503002137 49 74 0.0 0.0 0.02 0.07 0.02 62 1012.1
20260503001636 49 74 0.0 0.0 0.02 0.07 0.02 62 1012.2
20260503001133 49 110 0.0 0.0 0.02 0.07 0.02 62 1012.2
20260503000631 49 79 0.0 0.0 0.01 0.06 0.01 62 1012.2
20260503000131 49 109 0.0 0.0 0.01 0.06 0.01 62 1012.2
20260502235633 49 115 0.0 0.0 0.01 0.06 0.01 62 1012.3
20260502235416 49 19 0.0 0.0 0.01 0.06 0.00 62 1012.3
20260502234915 49 129 0.0 0.0 0.01 0.06 0.00 62 1012.2
20260502234132 49 154 0.0 0.0 0.01 0.06 0.00 62 1012.3
20260502233631 49 128 0.0 0.0 0.01 0.06 0.00 62 1012.3
20260502233134 49 9 0.0 0.0 0.01 0.06 0.00 62 1012.3
20260502232632 49 149 0.0 0.0 0.01 0.06 0.00 62 1012.3
20260502232131 49 105 0.0 0.0 0.01 0.06 0.00 62 1012.3
20260502231631 49 350 0.0 0.0 0.01 0.06 0.00 62 1012.3
20260502231131 49 5 0.0 0.0 0.01 0.06 0.00 62 1012.4
20260502230915 49 0 0.0 0.0 0.01 0.06 0.00 62 1012.4
20260502230131 49 347 0.0 0.0 0.01 0.06 0.00 62 1012.4
20260502225632 49 146 0.0 0.0 0.01 0.06 0.05 62 1012.4
20260502225132 49 0 0.0 0.0 0.00 0.05 0.05 62 1012.4
20260502224914 49 34 0.0 0.0 0.00 0.05 0.05 62 1012.4
20260502224132 49 28 0.0 0.0 0.00 0.05 0.05 62 1012.5
20260502223633 49 112 0.0 0.0 0.00 0.05 0.05 62 1012.4
20260502223132 49 78 0.0 0.0 0.00 0.05 0.05 62 1012.4
20260502222632 49 17 0.0 0.0 0.00 0.05 0.05 62 1012.4
20260502222415 49 92 0.0 0.0 0.00 0.05 0.05 62 1012.4
20260502221631 49 355 0.0 0.0 0.00 0.05 0.05 62 1012.4
20260502221208 49 28 0.0 0.0 0.00 0.05 0.05 62 1012.4
20260502221157 49 11 0.0 0.0 0.00 0.05 0.05 62 1012.4
20260502220418 49 127 0.0 0.0 0.00 0.05 0.05 62 1012.3
20260502215633 49 355 0.0 0.0 0.00 0.05 0.05 62 1012.3
20260502215132 49 17 0.0 0.0 0.00 0.05 0.05 62 1012.4
20260502214631 49 141 0.0 0.0 0.00 0.05 0.05 62 1012.4
20260502214132 49 5 0.0 0.0 0.00 0.05 0.05 62 1012.4
20260502213631 49 40 0.0 0.0 0.00 0.05 0.05 62 1012.4
20260502213418 49 126 0.0 0.0 0.00 0.05 0.05 62 1012.5
20260502212632 49 163 0.0 0.0 0.00 0.05 0.05 62 1012.5
20260502212417 50 63 0.0 0.0 0.00 0.05 0.05 62 1012.6
20260502211632 50 90 0.0 0.0 0.00 0.06 0.05 62 1012.5
20260502211132 50 37 0.0 0.0 0.00 0.06 0.05 62 1012.5
20260502210632 50 19 0.0 0.0 0.00 0.06 0.05 62 1012.6
20260502210131 50 338 0.0 0.0 0.00 0.07 0.05 62 1012.6
20260502205630 50 42 0.0 0.0 0.00 0.09 0.05 62 1012.6
20260502205132 50 150 0.0 0.0 0.00 0.09 0.05 62 1012.5
20260502204914 50 37 0.0 0.0 0.00 0.09 0.05 62 1012.6
20260502204132 50 5 0.0 0.0 0.00 0.09 0.05 62 1012.5
20260502203630 50 10 0.0 0.0 0.00 0.10 0.05 62 1012.5
20260502203130 50 120 0.0 0.0 0.00 0.10 0.05 62 1012.5
20260502202631 50 91 0.0 0.0 0.00 0.10 0.05 61 1012.5
20260502202132 50 144 0.0 0.0 0.00 0.10 0.05 61 1012.5
20260502201633 50 137 0.0 0.0 0.00 0.10 0.05 61 1012.5
20260502201132 50 138 0.0 0.0 0.00 0.10 0.05 61 1012.4
20260502200632 50 345 0.0 0.0 0.00 0.10 0.05 61 1012.4
20260502200130 51 119 0.0 0.0 0.00 0.10 0.05 61 1012.4
20260502195630 51 98 0.0 0.0 0.00 0.10 0.05 61 1012.3
20260502195131 51 68 0.0 0.0 0.00 0.10 0.05 61 1012.1
20260502194707 51 257 0.0 0.0 0.00 0.10 0.05 61 1011.9
20260502194656 51 31 0.0 0.0 0.00 0.10 0.05 61 1012.0
20260502193716 51 58 0.0 0.0 0.00 0.10 0.05 61 1011.7
20260502193701 51 0 0.0 0.0 0.00 0.10 0.05 61 1011.8
20260502192908 51 172 0.0 0.0 0.00 0.10 0.05 61 1011.6
20260502192126 51 143 0.0 0.0 0.00 0.10 0.05 61 1011.6
20260502191625 51 313 0.0 0.0 0.00 0.10 0.05 61 1011.6
20260502191123 52 135 0.0 0.0 0.00 0.10 0.05 61 1011.5
20260502190652 52 338 0.0 0.0 0.00 0.10 0.05 61 1011.3
20260502190642 52 310 0.0 0.0 0.00 0.10 0.05 61 1011.4
20260502185620 52 146 0.0 0.0 0.00 0.10 0.05 61 1011.2
20260502185406 53 0 0.0 0.0 0.00 0.10 0.05 61 1011.1
20260502184620 53 26 0.0 0.0 0.00 0.10 0.05 61 1011.1
20260502184116 54 119 0.0 0.0 0.00 0.10 0.05 61 1011.2
20260502183617 55 178 0.0 0.0 0.00 0.10 0.05 61 1011.2
20260502183403 56 90 0.0 0.0 0.00 0.10 0.05 60 1011.2
20260502182616 56 53 0.0 0.0 0.00 0.10 0.05 60 1011.1
20260502182115 57 71 0.0 0.0 0.00 0.10 0.05 60 1011.1
20260502181907 57 22 0.0 0.0 0.00 0.10 0.05 60 1011.1
20260502181400 58 355 0.0 0.0 0.00 0.10 0.05 60 1011.1
20260502180612 58 286 0.0 0.0 0.00 0.10 0.05 60 1011.0
20260502180112 58 284 0.0 0.0 0.00 0.10 0.05 60 1010.9
20260502170103 59 260 0.0 0.0 0.00 0.12 0.05 59 1010.9
20260502164104 60 274 0.0 0.0 0.00 0.13 0.05 59 1010.9
20260502163843 60 279 0.0 0.0 0.00 0.13 0.05 59 1010.9
20260502163103 61 259 0.0 0.0 0.00 0.13 0.05 59 1010.9
20260502162603 61 246 0.0 0.0 0.00 0.13 0.05 59 1010.8
20260502162101 61 260 0.0 0.0 0.00 0.13 0.05 59 1010.8
20260502161605 61 223 0.0 0.0 0.00 0.13 0.05 59 1010.8
20260502161346 61 282 0.0 0.0 0.00 0.13 0.05 59 1010.7
20260502160634 60 270 0.0 0.0 0.00 0.13 0.05 59 1010.8
20260502160624 61 264 0.0 0.0 0.00 0.13 0.05 59 1010.8
20260502151602 58 275 0.0 0.0 0.00 0.13 0.05 58 1010.9
20260502151103 58 259 0.0 0.0 0.00 0.14 0.05 58 1010.9
20260502150603 58 252 0.0 0.0 0.00 0.14 0.05 58 1010.9
20260502150103 58 261 0.0 0.0 0.00 0.14 0.05 58 1011.1
20260502130603 59 238 0.0 0.0 0.03 0.13 0.03 59 1011.5
20260502130103 59 236 0.0 0.0 0.02 0.12 0.02 59 1011.5
20260502123603 60 296 0.0 0.0 0.00 0.09 0.00 59 1011.5
20260502123347 60 55 0.0 0.0 0.00 0.09 0.00 59 1011.5
20260502122848 60 236 0.0 0.0 0.00 0.09 0.00 59 1011.5
20260502122102 60 30 0.0 0.0 0.00 0.09 0.00 59 1011.4
20260502121849 60 5 0.0 0.0 0.00 0.09 0.00 59 1011.5
20260502121103 60 272 0.0 0.0 0.00 0.09 0.00 59 1011.4
20260502120603 60 43 0.0 0.0 0.00 0.09 0.00 59 1011.5
20260502115846 60 292 0.0 0.0 0.00 0.09 0.00 59 1011.5
20260502115103 60 268 0.0 0.0 0.00 0.09 0.00 59 1011.5
20260502114609 61 34 0.0 0.0 0.00 0.09 0.00 59 1011.5
20260502114602 61 42 0.0 0.0 0.00 0.09 0.00 59 1011.5
20260502113603 62 38 0.0 0.0 0.00 0.09 0.00 58 1011.5
20260502113103 62 50 0.0 0.0 0.00 0.09 0.00 58 1011.5
20260502112602 63 53 0.0 0.0 0.00 0.09 0.00 58 1011.5
20260502112104 64 26 0.0 0.0 0.00 0.09 0.00 58 1011.6
20260502111602 65 333 0.0 0.0 0.00 0.09 0.00 57 1011.7
20260502111101 65 76 0.0 0.0 0.00 0.09 0.00 57 1011.6
20260502110601 65 255 0.0 0.0 0.00 0.09 0.00 57 1011.7
20260502110103 65 267 0.0 0.0 0.00 0.09 0.00 57 1011.7
20260502105602 65 223 0.0 0.0 0.00 0.09 0.00 57 1011.8
20260502105104 65 271 0.0 0.0 0.00 0.09 0.00 57 1011.7
20260502104635 65 331 0.0 0.0 0.00 0.09 0.00 57 1011.8
20260502104625 65 326 0.0 0.0 0.00 0.09 0.00 57 1011.8
20260502103603 64 308 0.0 0.0 0.00 0.09 0.00 58 1011.8
20260502103104 64 304 0.0 0.0 0.00 0.09 0.00 58 1011.8
20260502102602 64 211 0.0 0.0 0.00 0.09 0.00 58 1011.9
20260502102122 64 190 0.0 0.0 0.00 0.09 0.00 58 1012.0
20260502102114 64 227 0.0 0.0 0.00 0.09 0.00 58 1011.9
20260502101103 65 229 0.0 0.0 0.00 0.09 0.00 58 1012.0
20260502100602 65 261 0.0 0.0 0.00 0.09 0.00 58 1012.0
20260502091345 62 208 0.0 0.0 0.00 0.09 0.00 59 1012.0
20260502090603 62 204 0.0 0.0 0.00 0.09 0.00 59 1011.9
20260502090103 61 245 0.0 0.0 0.00 0.09 0.00 59 1012.0
20260502080103 57 251 0.0 0.0 0.00 0.09 0.00 59 1012.0
20260502071103 53 182 0.0 0.0 0.00 0.09 0.00 60 1012.2
20260502070604 52 181 0.0 0.0 0.00 0.09 0.00 60 1012.1
20260502065634 51 192 0.0 0.0 0.00 0.09 0.00 61 1012.1
20260502065622 52 192 0.0 0.0 0.00 0.09 0.00 61 1012.1
20260502064603 51 199 0.0 0.0 0.00 0.09 0.00 61 1012.2
20260502064101 51 200 0.0 0.0 0.00 0.09 0.00 61 1012.3
20260502063600 51 218 0.0 0.0 0.00 0.09 0.00 61 1012.2
20260502063059 50 205 0.0 0.0 0.00 0.09 0.00 61 1012.1
20260502062559 50 211 0.0 0.0 0.00 0.09 0.00 61 1012.2
20260502062057 50 202 0.0 0.0 0.00 0.09 0.00 61 1012.1
20260502061557 49 213 0.0 0.0 0.00 0.09 0.00 61 1012.1
20260502061057 49 205 0.0 0.0 0.00 0.09 0.00 62 1012.1
20260502060555 49 193 0.0 0.0 0.00 0.09 0.00 62 1012.1
20260502060057 49 216 0.0 0.0 0.00 0.09 0.00 62 1012.2
20260502055554 49 217 0.0 0.0 0.00 0.09 0.00 62 1012.2
20260502055055 49 217 0.0 0.0 0.00 0.09 0.00 62 1012.1
20260502054837 49 218 0.0 0.0 0.00 0.09 0.00 62 1012.0
20260502054055 49 215 0.0 0.0 0.00 0.09 0.00 62 1012.0
20260502053553 49 232 0.0 0.0 0.00 0.09 0.00 62 1012.0
20260502053338 49 213 0.0 0.0 0.00 0.09 0.00 62 1012.1
20260502052553 49 213 0.0 0.0 0.00 0.09 0.00 62 1012.0
20260502052054 49 222 0.0 0.0 0.00 0.09 0.00 62 1012.0
20260502051552 49 208 0.0 0.0 0.00 0.09 0.00 62 1011.9
20260502051335 49 209 0.0 0.0 0.00 0.09 0.00 62 1011.9
20260502050544 49 208 0.0 0.0 0.00 0.09 0.00 62 1012.0
20260502050040 49 208 0.0 0.0 0.00 0.09 0.00 62 1012.0
20260502045538 49 209 0.0 0.0 0.00 0.09 0.00 62 1012.0
20260502045123 49 209 0.0 0.0 0.00 0.09 0.00 62 1011.9
20260502045107 49 209 0.0 0.0 0.00 0.09 0.00 62 1011.9
20260502044318 49 209 0.0 0.0 0.00 0.09 0.00 62 1011.9
20260502043818 49 204 0.0 0.0 0.00 0.09 0.00 62 1011.8
20260502043034 49 246 0.0 0.0 0.00 0.09 0.00 62 1011.8
20260502042817 49 215 0.0 0.0 0.00 0.09 0.00 62 1011.8
20260502042033 49 215 0.0 0.0 0.00 0.09 0.00 62 1011.8
20260502041533 49 204 0.0 0.0 0.00 0.09 0.00 62 1011.9
20260502041033 49 208 0.0 0.0 0.00 0.09 0.00 62 1011.9
20260502040531 49 212 0.0 0.0 0.00 0.09 0.00 62 1011.9
20260502040033 49 214 0.0 0.0 0.00 0.09 0.00 62 1011.9
20260502035531 49 213 0.0 0.0 0.00 0.09 0.00 62 1012.0
20260502035032 49 203 0.0 0.0 0.00 0.09 0.00 62 1012.1
20260502034816 49 206 0.0 0.0 0.00 0.09 0.00 62 1012.2
20260502034031 49 210 0.0 0.0 0.00 0.09 0.00 62 1012.3
20260502033531 49 198 0.0 0.0 0.00 0.09 0.00 62 1012.3
20260502033032 49 181 0.0 0.0 0.00 0.09 0.00 62 1012.3
20260502032533 49 221 0.0 0.0 0.00 0.09 0.00 62 1012.3
20260502032312 49 182 0.0 0.0 0.00 0.09 0.00 62 1012.3
20260502031815 49 186 0.0 0.0 0.00 0.09 0.00 62 1012.3
20260502031031 49 209 0.0 0.0 0.00 0.09 0.00 62 1012.4
20260502030531 49 196 0.0 0.0 0.00 0.09 0.00 62 1012.4
20260502030034 49 193 0.0 0.0 0.00 0.09 0.00 62 1012.5
20260502025815 49 220 0.0 0.0 0.00 0.09 0.00 61 1012.6
20260502025030 50 219 0.0 0.0 0.00 0.09 0.00 61 1012.6
20260502024530 50 212 0.0 0.0 0.00 0.09 0.00 61 1012.6
20260502024028 50 204 0.0 0.0 0.00 0.09 0.00 61 1012.6
20260502023526 50 205 0.0 0.0 0.00 0.09 0.00 61 1012.6
20260502023025 50 176 0.0 0.0 0.00 0.09 0.00 61 1012.6
20260502022525 50 205 0.0 0.0 0.00 0.09 0.00 62 1012.6
20260502022022 50 193 0.0 0.0 0.00 0.09 0.00 62 1012.7
20260502021805 50 211 0.0 0.0 0.00 0.09 0.00 62 1012.6
20260502021013 50 205 0.0 0.0 0.00 0.09 0.00 61 1012.6
20260502020511 50 227 0.0 0.0 0.00 0.09 0.00 61 1012.8
20260502020255 50 210 0.0 0.0 0.00 0.09 0.00 61 1012.8
20260502015510 50 218 0.0 0.0 0.00 0.09 0.00 61 1012.9
20260502015009 50 219 0.0 0.0 0.00 0.09 0.00 61 1012.9
20260502014505 50 219 0.0 0.0 0.00 0.09 0.00 61 1013.1
20260502014007 50 219 0.0 0.0 0.00 0.09 0.00 61 1013.1
20260502013534 50 220 0.0 0.0 0.00 0.09 0.00 61 1013.1
20260502013522 50 220 0.0 0.0 0.00 0.09 0.00 61 1013.1
20260502012504 50 223 0.0 0.0 0.00 0.09 0.00 61 1013.2
20260502012005 50 217 0.0 0.0 0.00 0.09 0.00 61 1013.3
20260502011505 50 221 0.0 0.0 0.00 0.09 0.00 61 1013.3
20260502011005 50 214 0.0 0.0 0.00 0.09 0.00 61 1013.4
20260502010504 51 214 0.0 0.0 0.00 0.09 0.00 61 1013.4
20260502010243 51 213 0.0 0.0 0.00 0.09 0.00 61 1013.5